www.pogodaiklimat.ru
ПОГОДА в Шарлотте
Время
(UTC), дата
16:15 18.11
16:16 18.11
16:35 18.11
16:36 18.11
16:55 18.11
16:56 18.11
17:15 18.11
17:16 18.11
17:35 18.11
17:55 18.11
17:56 18.11
18:15 18.11
18:35 18.11
18:55 18.11
19:15 18.11
19:16 18.11
19:35 18.11
19:55 18.11
19:56 18.11
20:15 18.11
20:35 18.11
20:55 18.11
20:56 18.11
21:15 18.11
21:35 18.11
21:55 18.11
22:15 18.11
22:35 18.11
22:55 18.11
23:15 18.11
23:35 18.11
23:55 18.11
23:56 18.11
00:15 18.11
00:16 18.11
00:35 18.11
00:55 18.11
00:56 18.11
01:15 18.11
01:16 18.11
01:35 18.11
01:55 18.11
01:56 18.11
02:15 18.11
02:16 18.11
02:35 18.11
02:55 18.11
03:15 18.11
Ветер
(напр.,м/с)
Видим. Явления Облачность Т
(С)
Тd
(С)
f
(%)
Тe
(С)
Тes
(С)
Комфортность P
(гПа)
Po
(гПа)
Тmin
(С)
Tmax
(С)
R
(мм)
R24
(мм)
S
(см)
0 16 км 10/10 1500 м +5.4 -0.6 65 +5 +5 975.0
0 16 км 10/10 1500 м +5.4 -0.6 65 +5 +5 975.0
0 16 км 10/10 1500 м +6.1 -0.2 64 +6 +6 974.7
0 16 км 10/10 1500 м +6.0 -0.2 64 +5 +5 974.7
0 16 км 10/10 1500 м +6.5 -0.4 61 +6 +6 974.4 +0.5 +6.5
0 16 км 10/10 1500 м +6.6 -0.4 61 +6 +6 974.4 +0.5 +6.6
0 16 км 10/10 1500 м +7.8 -0.3 57 +7 +7 974.4
0 16 км 10/10 1500 м +7.8 -0.4 56 +7 +7 974.4
0 16 км 5/5 1500 м +7.6 -0.1 58 +7 +10 974.1
Ю 3 16 км ясно +7.6 -0.2 58 +5 +9 974.1
Ю 3 16 км ясно +7.6 -0.2 58 +5 +8 974.1
ЮЗ 1 16 км ясно +7.5 -0.3 58 +6 +11 973.7
0 16 км ясно +8.2 -0.1 56 +8 +13 973.7
0 16 км ясно +7.8 -0.2 57 +7 +13 973.4
0 16 км 8/8 1080 м +7.8 -0.2 57 +7 +8 973.4
0 16 км 8/8 1080 м +7.8 -0.1 57 +7 +8 973.4
0 16 км 5/5 1080 м +7.7 -0.7 55 +7 +9 973.4
0 16 км 5/5 1080 м +7.6 -0.7 56 +7 +9 973.4
0 16 км 5/5 1080 м +7.6 -0.6 56 +7 +9 973.4
0 16 км 10/10 1140 м +7.2 0.0 60 +7 +7 973.4
0 16 км 10/10 1140 м +7.0 -0.4 59 +7 +7 973.4
0 16 км 8/8 1140 м +6.1 -0.4 63 +6 +6 973.7
0 16 км 8/8 1140 м +6.1 -0.3 64 +6 +6 973.7
С 1 16 км 10/10 1140 м +6.0 0.0 65 +4 +4 973.7
СВ 2 16 км 10/10 1140 м +5.2 0.0 69 +2 +2 974.1
0 16 км 10/10 1140 м +5.0 0.0 70 +4 +4 974.1
СЗ 1 16 км 10/10 1140 м +4.6 0.0 72 +3 +3 974.4
С 1 16 км 10/8 1140 м
[средняя]
+4.0 0.0 75 +2 +2 974.4
СЗ 2 11 км 10/8 960 м
[средняя]
+3.6 0.0 77 0 0 974.7 +3.6 +8.2
0 11 км 10/8 960 м
[средняя]
+3.2 0.0 80 +2 +2 974.7
0 11 км 5/5 960 м
[средняя]
+2.7 0.0 82 +2 +2 974.7
0 11 км 5/5 870 м +2.4 -0.2 83 +1 +1 974.7
0 11 км 5/5 870 м +2.3 -0.3 83 +1 +1 974.7
0 11 км ясно +2.0 -0.2 85 +1 +1 974.7
0 11 км ясно +2.0 -0.2 85 +1 +1 974.7
0 8 км дымка ясно +0.2 -1.5 88 -1 -1 974.7
0 8 км дымка ясно +0.1 -1.2 91 -1 -1 974.7
0 8 км дымка ясно +0.1 -1.2 91 -1 -1 974.7
0 8 км дымка 5/0 2550 м
[средняя]
+0.1 -1.0 92 -1 -1 974.7
0 8 км дымка ясно +0.1 -1.0 92 -1 -1 974.7
0 6 км дымка 8/8 1170 м
[средняя]
-0.3 -1.6 91 -2 -2 974.7
0 6 км дымка 10/10 1170 м -0.4 -1.6 92 -2 -2 974.7
0 6 км дымка 10/10 1170 м -0.4 -1.6 92 -2 -2 974.7
0 6 км дымка 10/10 1170 м -0.6 -1.9 91 -2 -2 974.7
0 6 км дымка 10/10 1170 м -0.6 -1.9 91 -2 -2 974.4
0 6 км дымка 10/10 180 м -0.5 -1.7 92 -2 -2 974.7
0 6 км дымка 10/10 180 м -0.4 -1.5 92 -2 -2 974.7
0 8 км дымка 10/10 180 м 0.0 -0.9 94 -1 -1 974.7
Местоположение метеостанции Fitch H Beach Airport: широта 42.5744 долгота -84.8114 высота над уровнем моря 271 м.
В архиве по умолчанию представлена погода в Шарлотте за последние 1-2 суток. Обновление информации о фактической погоде в базе происходит ежечасно! Архивные данные за месяц целиком и за предыдущие месяцы Вы можете получить, выбрав интересующий диапазон дат из раскрывающегося списка и нажав кнопку "Ввод!".
Внимание! Архив погоды МЕТАР в базе сайта по станциям, не включенным в климатический монитор, хранится не более 60 дней. Нет смысла пытаться выбрать более раннюю дату.
*Определитесь, кто Вы:
Внимание! Время в таблицах - всемирное. Для получения местного времени необходимо прибавить поправку, которая равна ч.
Смотрите также архив погоды в соседних городах и на ближайших метеорологических станциях:
Партнеры нашего сайта:      
Пояснения к столбцам:
  • Ветер - указаны скорость ветра в м/с - средняя за 10 мин, порывы в срок и между сроками (в фигурных скобках) и направление, откуда дует ветер: С - северный,
  • СВ - северо-восточный, В - восточный, ЮВ - юго-восточный, Ю - южный, ЮЗ - юго-западный, З - западный, СЗ - северо-западный.
  • Видимость - горизонтальная дальность видимости в метрах или километрах. При видимости от 1 до 10 км при отсутствии осадков обычно наблюдается дымка, при ухудшении видимости до 1 км и менее - туман. В сухую погоду видимость может ухудшаться дымом, пылью или мглою.
  • Явления - указаны атмосферные явления, наблюдавшиеся в срок или в последний час перед сроком; фигурными скобками обозначены явления, наблюдавшиеся между сроками (за 1-3 часа до срока); квадратными скобками обозначены град или гололедные отложения с указанием их диаметра в мм.
  • Облачность - указаны через наклонную черту общая и нижняя облачность в баллах и высота нижней границы облаков в метрах; квадратными скобками обозначены формы облаков: Ci - перистые, Cs - перисто-слоистые, Cc - перисто-кучевые, Ac - высококучевые, As - высокослоистые, Sc - слоисто-кучевые, Ns - слоисто-дождевые, Cu - кучевые, Cb - кучево-дождевые. Подробнее классификацию облаков см. в Атласе облаков (PDF).
  • T - Температура воздуха - температура, измеренная на высоте 2 м над землей.
  • Td - Температура точки росы - температура, при понижении до которой содержащийся в воздухе водяной пар достигнет насыщения.
  • f - Относительная влажность воздуха - влажноcть воздуха, измеренная на высоте 2 м над землей.
  • Te - Эффективная температура - температура, которую ощущает одетый по сезону человек в тени. Характеристика душности погоды. При расчете учитывается влияние влажности воздуха и скорости ветра на теплоощущения человека.
  • Tes - Эффективная температура на солнце - температура, которую ощущает человек, с поправкой на солнечный нагрев. Характеристика знойности погоды. Зависит от высоты солнца над горизонтом, облачности и скорости ветра. Ночью, в пасмурную погоду, а также при ветре 12 м/с и более поправка равна нулю.
  • P - Атмосферное давление - приведенное к уровню моря атмосферное давление.
  • Po - Атмосферное давление - измеренное на уровне метеостанции атмосферное давление.
  • Tmin - Минимальная температура - минимум температуры воздуха на высоте 2 м над землей.
  • Tmax - Максимальная температура - максимум температуры воздуха на высоте 2 м над землей.
  • R - Количество осадков - Количество выпавших осадков за период времени, мм. При наведении курсора мыши на число - период времени, за который выпало указанное количество осадков.
  • R24 - Количество осадков - Количество выпавших осадков за 24 часа, мм.
  • S - Снежный покров - Высота снежного покрова, см. При наведении курсора мыши на число - состояние снежного покрова и степень покрытия местности в баллах.